When you browse on this site, cookies collect data to enhance your experience and personalize the content and advertising you see.
Visit our Privacy Policy to learn more. By continuing to use the site, you agree to this use of cookies and data.
  • In Spain
  • List of Countries
  • For 7 days
  • Water Temperature
  • Satellite Maps
  • Weather Map
  • Weather Widgets
  • user-avatar
    Login

    Hourly Weather Caltenco

    Today, 14 December, Friday

    Time Temperature Precipitation Wind Pressure Humidity
    00:00 +13°C° 0 mm 1 mps 597 mmHg 78%
    01:00 +12°C° 0 mm 1 mps 598 mmHg 78%
    02:00 +12°C° 0 mm 1 mps 598 mmHg 79%
    03:00 +12°C° 0 mm 1 mps 598 mmHg 80%
    04:00 +12°C° 0 mm 1 mps 598 mmHg 81%
    05:00 +11°C° 0 mm 1 mps 598 mmHg 82%
    06:00 +13°C° 0 mm 2 mps 599 mmHg 77%
    07:00 +14°C° 0 mm 2 mps 599 mmHg 71%
    08:00 +15°C° 0 mm 2 mps 600 mmHg 66%
    09:00 +17°C° 0 mm 3 mps 601 mmHg 60%
    10:00 +18°C° 0 mm 3 mps 601 mmHg 54%
    11:00 +19°C° 0 mm 3 mps 601 mmHg 49%
    12:00 +19°C° 0 mm 4 mps 601 mmHg 48%
    13:00 +20°C° 0 mm 4 mps 601 mmHg 48%
    14:00 +20°C° 0 mm 4 mps 601 mmHg 47%
    15:00 +18°C° 0 mm 4 mps 600 mmHg 53%
    16:00 +17°C° 0 mm 3 mps 600 mmHg 59%
    17:00 +16°C° 0 mm 2 mps 600 mmHg 65%
    18:00 +15°C° 0 mm 2 mps 600 mmHg 69%
    19:00 +13°C° 0 mm 3 mps 600 mmHg 74%
    20:00 +12°C° 0 mm 3 mps 600 mmHg 79%
    21:00 +11°C° 0 mm 3 mps 600 mmHg 80%
    22:00 +11°C° 0 mm 3 mps 600 mmHg 80%
    23:00 +11°C° 0 mm 3 mps 600 mmHg 81%

    Tomorrow, 15 December, Saturday

    Time Temperature Precipitation Wind Pressure Humidity
    00:00 +10°C° 0 mm 3 mps 600 mmHg 81%
    01:00 +10°C° 0 mm 2 mps 599 mmHg 82%
    02:00 +10°C° 0 mm 2 mps 599 mmHg 82%
    03:00 +10°C° 0 mm 2 mps 599 mmHg 81%
    04:00 +10°C° 0 mm 2 mps 599 mmHg 81%
    05:00 +10°C° 0 mm 2 mps 599 mmHg 81%
    06:00 +10°C° 0 mm 3 mps 600 mmHg 76%
    07:00 +11°C° 0 mm 3 mps 601 mmHg 72%
    08:00 +12°C° 0 mm 3 mps 601 mmHg 67%
    09:00 +14°C° 0 mm 3 mps 602 mmHg 60%
    10:00 +16°C° 0 mm 3 mps 602 mmHg 54%
    11:00 +18°C° 0 mm 2 mps 603 mmHg 47%
    12:00 +19°C° 0 mm 3 mps 602 mmHg 45%
    13:00 +19°C° 0 mm 3 mps 602 mmHg 43%
    14:00 +20°C° 0 mm 3 mps 602 mmHg 41%
    15:00 +18°C° 0 mm 3 mps 601 mmHg 47%
    16:00 +17°C° 0 mm 3 mps 601 mmHg 53%
    17:00 +14°C° 0 mm 3 mps 600 mmHg 59%
    18:00 +13°C° 0 mm 3 mps 601 mmHg 64%
    19:00 +12°C° 0 mm 3 mps 601 mmHg 68%
    20:00 +12°C° 0 mm 2 mps 601 mmHg 73%
    21:00 +12°C° 0 mm 2 mps 601 mmHg 75%
    22:00 +12°C° 0 mm 2 mps 601 mmHg 76%
    23:00 +10°C° 0 mm 2 mps 601 mmHg 78%

    Day after tomorrow, 16 December, Sunday

    Time Temperature Precipitation Wind Pressure Humidity
    00:00 +10°C° 0 mm 2 mps 600 mmHg 79%
    01:00 +10°C° 0 mm 2 mps 600 mmHg 80%
    02:00 +9°C° 0 mm 2 mps 600 mmHg 81%
    03:00 +9°C° 0 mm 2 mps 600 mmHg 81%
    04:00 +9°C° 0 mm 2 mps 600 mmHg 81%
    05:00 +9°C° 0 mm 2 mps 600 mmHg 82%
    06:00 +10°C° 0 mm 2 mps 601 mmHg 75%
    07:00 +13°C° 0 mm 2 mps 602 mmHg 69%
    08:00 +14°C° 0 mm 2 mps 603 mmHg 62%
    09:00 +16°C° 0 mm 2 mps 603 mmHg 55%
    10:00 +18°C° 0 mm 2 mps 603 mmHg 47%
    11:00 +20°C° 0 mm 2 mps 604 mmHg 40%
    12:00 +20°C° 0 mm 2 mps 603 mmHg 39%
    13:00 +21°C° 0 mm 3 mps 603 mmHg 37%
    14:00 +21°C° 0 mm 3 mps 602 mmHg 36%
    15:00 +19°C° 0 mm 3 mps 602 mmHg 43%
    16:00 +18°C° 0 mm 3 mps 601 mmHg 49%
    17:00 +16°C° 0 mm 3 mps 601 mmHg 56%
    18:00 +15°C° 0 mm 2 mps 601 mmHg 61%
    19:00 +14°C° 0 mm 2 mps 601 mmHg 66%
    20:00 +13°C° 0 mm 2 mps 602 mmHg 72%
    21:00 +13°C° 0 mm 2 mps 601 mmHg 74%
    22:00 +12°C° 0 mm 2 mps 601 mmHg 76%
    23:00 +12°C° 0 mm 2 mps 601 mmHg 79%

    17 December, Monday

    Time Temperature Precipitation Wind Pressure Humidity
    00:00 +12°C° 0 mm 2 mps 600 mmHg 80%
    01:00 +10°C° 0 mm 2 mps 600 mmHg 81%
    02:00 +10°C° 0 mm 2 mps 599 mmHg 82%
    03:00 +10°C° 0 mm 2 mps 599 mmHg 82%
    04:00 +10°C° 0 mm 2 mps 599 mmHg 82%
    05:00 +9°C° 0 mm 2 mps 599 mmHg 82%
    06:00 +12°C° 0 mm 2 mps 600 mmHg 76%
    07:00 +13°C° 0 mm 2 mps 601 mmHg 71%
    08:00 +14°C° 0 mm 2 mps 602 mmHg 66%
    09:00 +16°C° 0 mm 2 mps 602 mmHg 59%
    10:00 +17°C° 0 mm 2 mps 602 mmHg 52%
    11:00 +19°C° 0 mm 2 mps 603 mmHg 45%
    12:00 +20°C° 0 mm 2 mps 602 mmHg 44%
    13:00 +20°C° 0 mm 3 mps 602 mmHg 43%
    14:00 +21°C° 0 mm 3 mps 601 mmHg 41%
    15:00 +19°C° 0 mm 3 mps 600 mmHg 46%
    16:00 +18°C° 0 mm 3 mps 600 mmHg 51%
    17:00 +17°C° 0 mm 2 mps 600 mmHg 56%
    18:00 +16°C° 0 mm 2 mps 600 mmHg 61%
    19:00 +15°C° 0 mm 1 mps 600 mmHg 65%
    20:00 +14°C° 0 mm 1 mps 600 mmHg 69%
    21:00 +13°C° 0 mm 1 mps 599 mmHg 70%
    22:00 +13°C° 0 mm 1 mps 599 mmHg 71%
    23:00 +12°C° 0 mm 1 mps 599 mmHg 72%

    18 December, Tuesday

    Time Temperature Precipitation Wind Pressure Humidity
    00:00 +12°C° 0 mm 1 mps 598 mmHg 73%
    01:00 +12°C° 0 mm 1 mps 597 mmHg 74%
    02:00 +11°C° 0 mm 1 mps 597 mmHg 75%
    03:00 +11°C° 0 mm 1 mps 597 mmHg 76%
    04:00 +11°C° 0 mm 1 mps 597 mmHg 77%
    05:00 +11°C° 0 mm 1 mps 597 mmHg 78%
    06:00 +12°C° 0 mm 1 mps 598 mmHg 73%
    07:00 +14°C° 0 mm 1 mps 599 mmHg 67%
    08:00 +15°C° 0 mm 1 mps 600 mmHg 61%
    09:00 +17°C° 0 mm 2 mps 600 mmHg 55%
    10:00 +19°C° 0 mm 2 mps 600 mmHg 49%
    11:00 +20°C° 0 mm 3 mps 600 mmHg 43%
    12:00 +20°C° 0 mm 4 mps 600 mmHg 41%
    13:00 +21°C° 0 mm 4 mps 599 mmHg 39%
    14:00 +21°C° 0 mm 5 mps 599 mmHg 37%
    15:00 +20°C° 0 mm 4 mps 598 mmHg 42%
    16:00 +18°C° 0 mm 3 mps 598 mmHg 47%
    17:00 +17°C° 0 mm 3 mps 598 mmHg 52%
    18:00 +16°C° 0 mm 2 mps 598 mmHg 56%
    19:00 +15°C° 0 mm 2 mps 598 mmHg 59%
    20:00 +14°C° 0 mm 1 mps 598 mmHg 63%
    21:00 +14°C° 0 mm 1 mps 598 mmHg 65%
    22:00 +14°C° 0 mm 1 mps 597 mmHg 66%
    23:00 +13°C° 0 mm 1 mps 597 mmHg 68%

    19 December, Wednesday

    Time Temperature Precipitation Wind Pressure Humidity
    00:00 +13°C° 0 mm 1 mps 597 mmHg 71%
    01:00 +13°C° 0 mm 1 mps 596 mmHg 73%
    02:00 +12°C° 0 mm 1 mps 596 mmHg 76%
    03:00 +12°C° 0 mm 1 mps 596 mmHg 78%
    04:00 +12°C° 0 mm 1 mps 596 mmHg 80%
    05:00 +12°C° 0 mm 1 mps 596 mmHg 82%
    06:00 +13°C° 0 mm 1 mps 597 mmHg 77%
    07:00 +14°C° 0 mm 1 mps 598 mmHg 72%
    08:00 +15°C° 0 mm 2 mps 599 mmHg 67%
    09:00 +16°C° 0.1 mm 2 mps 599 mmHg 63%
    10:00 +17°C° 0.1 mm 3 mps 599 mmHg 59%
    11:00 +18°C° 0.1 mm 4 mps 599 mmHg 54%
    12:00 +18°C° 0.4 mm 4 mps 599 mmHg 56%
    13:00 +18°C° 0.4 mm 4 mps 598 mmHg 57%
    14:00 +18°C° 0.4 mm 4 mps 597 mmHg 59%
    15:00 +17°C° 0.2 mm 3 mps 597 mmHg 63%
    16:00 +16°C° 0.2 mm 2 mps 597 mmHg 67%
    17:00 +15°C° 0.2 mm 1 mps 597 mmHg 71%
    18:00 +14°C° 0.1 mm 1 mps 597 mmHg 72%
    19:00 +14°C° 0.1 mm 1 mps 598 mmHg 73%
    20:00 +14°C° 0.1 mm 1 mps 598 mmHg 74%
    21:00 +14°C° 0 mm 1 mps 598 mmHg 75%
    22:00 +13°C° 0 mm 1 mps 598 mmHg 76%
    23:00 +13°C° 0 mm 2 mps 598 mmHg 77%
    Show more